Regional Weather Roundup
Issued by NWS

Home | Current Version | Previous Version | Text Only | Print | Product List | Glossary On
Versions: 1 2 3 4 5 6 7 8 9 10 11 12 13 14 15 16 17 18 19 20 21 22 23 24 25 26 27 28 29 30 31 32 33 34 35 36 37 38 39 40 41 42 43 44 45 46 47 48 49 50
000
ASUS46 KLOX 302312
RWRCA

SOUTHERN CALIFORNIA WEATHER ROUNDUP
NATIONAL WEATHER SERVICE OXNARD CALIFORNIA
400 PM PDT WED JUL 30 2014

NOTE: "FAIR" INDICATES FEW OR NO CLOUDS BELOW 12,000 FEET WITH NO
SIGNIFICANT WEATHER AND/OR OBSTRUCTIONS TO VISIBILITY.

  -  STATIONS PRECEEDED BY AN ASTERISK (*) ARE NOT NWS OR FAA
     STATIONS AND ARE NOT SUBJECT TO NWS AND FAA QUALITY CONTROL.

CAZ041-042-087-310000-
LA AND ORANGE COUNTY COASTAL AREAS


CITY           SKY/WX    TMP DP  RH WIND       PRES   REMARKS
L.A. DOWNTOWN  MOSUNNY   84  61  45 VRB6      29.90F
L.A. AIRPORT   PTSUNNY   76  62  62 W13       29.92F
LONG BEACH     MOSUNNY   88  62  41 VRB6      29.90F

CITY           SKY/WX    TMP DP  RH WIND       PRES   REMARKS
AVALON           N/A     73 N/A N/A N5          N/A
FULLERTON      MOSUNNY   89  59  36 S8        29.89F
*GETTY CENTER    N/A     82  57  42 S10G16      N/A
HAWTHORNE      MOSUNNY   78  63  59 W8        29.92F
*LOS ALAMITOS  PTSUNNY   82  63  51 S9        29.90F
*REDONDO BEACH   N/A     74  65  74 W3        29.92F
SANTA ANA      PTSUNNY   85  63  47 W7        29.90F
STA MONICA APT MOSUNNY   78  58  49 W8        29.92F
TORRANCE       MOSUNNY   77  64  65 NW17      29.92F
*UCLA            N/A     79  55  44 W7        29.89F

$$

CAZ547-548-048-310000-
LA COUNTY VALLEYS AND INLAND EMPIRE


CITY           SKY/WX    TMP DP  RH WIND       PRES   REMARKS
BURBANK        MOSUNNY   89  55  31 S10       29.91F
VAN NUYS       MOSUNNY   93  55  27 SE9       29.90F HX  91

CITY           SKY/WX    TMP DP  RH WIND       PRES   REMARKS
CORONA AIRPORT PTCLDY    93  62  35 NW12      29.90F HX  93
*CHATSWORTH      N/A     96  63  33 W3        29.84S HX  97
CHINO          PTSUNNY   93  60  33 SW13      29.91F HX  93
*CLAREMONT       N/A     95  55  25 SW9         N/A  HX  93
MARCH AFB      SUNNY     97  55  24 NW16      29.94F HX  95
*NORTHRIDGE      N/A     95  52  23 E5G10       N/A  HX  92
ONTARIO        PTSUNNY   96  54  24 W13G22    29.91F HX  94
*PASADENA        N/A     93  63  36 NE1         N/A  HX  94
POMONA         SUNNY     93  59  31 SW10      29.95F HX  92
RIVERSIDE      MOSUNNY   96  56  26 W14G21    29.90F HX  94
SAN BERNARDINO PTSUNNY   99  46  16 SW13      29.92F HX  95
*WHITEMAN AP   MOSUNNY   91  57  31 SE9       29.95  HX  90
*WOODLAND HILL   N/A     99  55  23 N3          N/A  HX  97

$$

CAZ054-055-310000-
LA AND SAN BERNARDINO COUNTY MOUNTAINS


CITY           SKY/WX    TMP DP  RH WIND       PRES   REMARKS
*ACTON           N/A    101  47  15 SW12G26     N/A  HX  97
*BIG BEAR AIRP CLEAR     81  43  26 W15       30.32F
*BIG PINES       N/A     83  44  24 W2          N/A
MT WILSON NWS    N/A     84  54  34 MISG        N/A
SANDBERG       PTSUNNY   85  45  24 NW14G25   30.19S

$$

CAZ028-029-059-060-099-310000-
ANTELOPE VALLEY AND SURROUNDING AREAS


CITY           SKY/WX    TMP DP  RH WIND       PRES   REMARKS
LANCASTER      SUNNY    101  46  15 W20G26    29.97S HX  97
PALMDALE       SUNNY    100  48  17 W17G23    29.98S HX  96

CITY           SKY/WX    TMP DP  RH WIND       PRES   REMARKS
29 PALMS       MOSUNNY  106  41  11 VRB6      29.95F HX 100
BARSTOW/DAGGET SUNNY    107  38   9 N12       29.86F HX 101
BISHOP         CLOUDY    75  59  57 SE9       30.25F
CHINA LAKE     BLWGDUST  99  51  19 NW35G44   29.93S VSB 3/4 HX  96
EDWARDS AFB    PTSUNNY  102  42  12 W8        29.93F HX  97
MOJAVE         FAIR      99  46  16 W24       29.99F HX  95
NEEDLES          N/A    111  51  13 CALM      29.78F HX 108
VICTORVILLE    MOSUNNY  100  41  13 W7        29.98F HX  96

$$

CAZ039-040-310000-
VENTURA AND SANTA BARBARA COUNTY COAST


CITY           SKY/WX    TMP DP  RH WIND       PRES   REMARKS
CAMARILLO      MOSUNNY   79  60  52 W8        29.91F
NWS OXNARD       N/A     74  62  64 W3        29.91F
OXNARD AIRPORT PTSUNNY   73  61  65 W9        29.92F
*POINT MUGU    PTSUNNY   78  63  59 W10       29.92F
SBA APT/GOLETA MOSUNNY   73  61  65 S6        29.90F
*SANTA BARBARA   N/A     86  59  39 CALM      29.97F
*VENTURA         N/A     81  62  51 SW5       29.93F

$$

CAZ044-045-310000-
VENTURA COUNTY VALLEYS


CITY           SKY/WX    TMP DP  RH WIND       PRES   REMARKS
*SIMI VALLEY     N/A     88  61  39 W3        29.86R
*OJAI            N/A     98  62  30 NW2       29.81F HX  99
*FILLMORE        N/A     90  63  40 CALM      29.80F HX  90

$$

CAZ053-310000-
VENTURA COUNTY MOUNTAINS


CITY           SKY/WX    TMP DP  RH WIND       PRES   REMARKS
*LOCKWOOD VLY    N/A     86  43  22 MISG        N/A
*ROSE VALLEY     N/A     93  57  29 MISG        N/A  HX  92

$$

CAZ034-035-036-310000-
CENTRAL COAST AND SANTA YNEZ VALLEY


CITY           SKY/WX    TMP DP  RH WIND       PRES   REMARKS
SAN LUIS OBISP CLOUDY    71  59  65 NW14      29.96F
SANTA MARIA    PTSUNNY   70  59  68 NW7       29.99F

CITY           SKY/WX    TMP DP  RH WIND       PRES   REMARKS
*CAL POLY SLO    N/A     75  63  64 SW9         N/A
*LOMPOC          N/A     68  57  68 MISG      29.99F
*PISMO BEACH     N/A     69  61  77 E1        29.98F

$$

CAZ037-038-051-310000-
SAN LUIS OBISPO COUNTY INTERIOR AND CUYAMA VALLEY


CITY           SKY/WX    TMP DP  RH WIND       PRES   REMARKS
*CUYAMA          N/A     96  48  19 W15       29.84S HX  93
PASO ROBLES    PTSUNNY   99  50  19 S15       29.92F HX  96

$$

CAZ032-033-061-310000-
SOUTHERN DESERTS


CITY           SKY/WX    TMP DP  RH WIND       PRES   REMARKS
BLYTHE           N/A    N/A N/A N/A MISG      29.74F
IMPERIAL       PTSUNNY  113  49  12 CALM      29.71F HX 109
PALM SPRINGS   SUNNY    114  45  10 NW13G23   29.77F HX 109
THERMAL        MOSUNNY  113  44  10 W6        29.69F HX 108

$$

ELSEWHERE ACROSS THE WESTERN UNITED STATES AND MEXICO


CITY           SKY/WX    TMP DP  RH WIND       PRES   REMARKS
DENVER, CO     HVY RAIN  59  57  93 E10       30.34S VSB 1
GRAND CANYON,  MOSUNNY   86  44  23 SW12G20   30.26F
HONOLULU, HI   MOSUNNY   86  63  45 E14       30.00F
KAHULUI, MAUI  MOSUNNY   88  63  42 NE22G28   29.99F
LAKE TAHOE, CA CLOUDY    70  47  43 S13       30.36F
LAS VEGAS, NV  MOSUNNY  103  43  13 NW6       29.87F HX  98
MAMMOTH LAKES, PTSUNNY   64  50  59 CALM      30.43F
MEXICO CITY, M CLOUDY    72  50  46 SE9       30.26F
PHOENIX, AZ    MOSUNNY  109  49  13 VRB3      29.78F HX 105
PORTLAND, OR   MOSUNNY   87  61  41 N8        30.03F
RENO, NV       LGT RAIN  81  50  33 N12G21    30.24R
SALT LAKE CITY PTSUNNY   81  56  42 E7        30.16F
SAN DIEGO, CA  MOSUNNY   79  64  60 W10       29.93F
SAN FRANCISCO, MOSUNNY   70  57  63 W23       29.95F
SAN JOSE, CA   MOSUNNY   80  60  50 NW13      29.94S
SEATTLE, WA    MOSUNNY   83  49  30 N12       30.12F
TIJUANA, MEX   MOSUNNY   81  59  47 NE22      29.95F

$$

STATION/POSITION TIME  TEMP    WIND        PRES    VSBY  WAVE
                       AIR SEA DIR/SP/G                  HT/PER
                 (UTC) (F)     (DEG/KT/KT) (MB)    (MI)  (FT/S)
POINT ARGUELLO B NOT AVBL
WEST SANTA BARBA 2300   62 62  310/ 21/ 25 1013.1F         5/ 8
POINT CONCEPTION NOT AVBL
EAST SANTA BARBA 2300   64 65  270/ 14/ 16 1012.9F
SANTA MONICA BAY 2300   69 70  280/  6/  6 1013.0F         3/ 6



USA.gov is the U.S. government's official web portal to all federal, state and local government web resources and services.